FW4448 Weather Reports


time (UTC)temp
C
wind
direction
speed
KPH
gust
KPH
rain 1hr
cm
rain 24hr
cm
rain mn
cm
humidity
%
barometer
mb
20260505015005 10 206 3.2 12.9 0.00 0.00 0.00 95 1012.7
20260505014507 10 259 3.2 16.1 0.00 0.00 0.00 95 1012.6
20260505014003 10 213 4.8 16.1 0.00 0.00 0.00 95 1012.7
20260505013505 10 233 4.8 14.5 0.00 0.00 0.00 95 1012.6
20260505013008 10 278 4.8 16.1 0.00 0.00 0.00 95 1012.6
20260505013002 10 274 4.8 17.7 0.00 0.00 0.00 96 1013.2
20260505012507 10 221 6.4 16.1 0.00 0.00 0.00 95 1012.5
20260505012003 10 246 6.4 16.1 0.00 0.00 0.00 95 1012.4
20260505011510 10 251 6.4 16.1 0.00 0.00 0.00 95 1012.4
20260505011500 10 248 4.8 17.7 0.00 0.00 0.00 95 1012.9
20260505011002 10 250 6.4 16.1 0.00 0.00 0.00 95 1012.4
20260505010504 10 210 8.0 16.1 0.00 0.00 0.00 95 1012.3
20260505010012 10 250 6.4 19.3 0.00 0.00 0.00 95 1012.3
20260505005504 10 263 8.0 19.3 0.00 0.00 0.00 94 1012.2
20260505005004 10 274 8.0 17.7 0.00 0.00 0.00 94 1012.1
20260505004510 10 229 6.4 19.3 0.00 0.00 0.00 94 1012.1
20260505004502 10 232 6.4 19.3 0.00 0.00 0.00 94 1012.5
20260505004004 10 217 6.4 19.3 0.00 0.00 0.00 94 1012.0
20260505003503 10 235 8.0 17.7 0.00 0.00 0.00 94 1011.9
20260505003011 10 227 8.0 19.3 0.00 0.00 0.00 93 1011.9
20260505003001 10 225 6.4 19.3 0.00 0.00 0.00 94 1012.4
20260505002505 10 210 4.8 20.9 0.00 0.00 0.00 93 1011.7
20260505002003 10 230 6.4 20.9 0.00 0.00 0.00 93 1011.7
20260505001510 10 206 8.0 19.3 0.00 0.00 0.00 93 1011.6
20260505001501 10 205 8.0 17.7 0.00 0.00 0.00 93 1012.1
20260505001003 10 210 8.0 22.5 0.00 0.00 0.00 92 1011.5
20260505000503 10 211 6.4 22.5 0.00 0.00 0.00 92 1011.4
20260505000011 10 253 6.4 17.7 0.00 0.00 0.00 92 1011.2
20260505000005 10 194 6.4 19.3 0.00 0.00 0.00 92 1011.8
20260504235503 10 236 6.4 17.7 0.00 0.00 0.00 91 1011.3
20260504235004 11 264 4.8 19.3 0.00 0.00 0.00 91 1011.2
20260504234508 11 257 6.4 19.3 0.00 0.00 0.00 91 1011.1
20260504234500 11 254 8.0 19.3 0.00 0.00 0.00 92 1011.8
20260504234001 11 267 6.4 22.5 0.00 0.00 0.00 91 1011.1
20260504233505 11 257 6.4 22.5 0.00 0.00 0.00 91 1011.2
20260504233010 11 219 8.0 22.5 0.00 0.00 0.00 91 1011.2
20260504233001 11 217 8.0 24.1 0.00 0.00 0.00 91 1011.6
20260504232503 11 231 8.0 22.5 0.00 0.00 0.00 90 1011.3
20260504232005 11 253 8.0 17.7 0.00 0.00 0.00 90 1011.2
20260504231509 11 229 8.0 17.7 0.00 0.00 0.00 90 1011.2
20260504231500 11 227 8.0 19.3 0.00 0.00 0.00 91 1011.7
20260504231003 11 218 4.8 22.5 0.00 0.00 0.00 90 1011.2
20260504230503 11 259 4.8 22.5 0.00 0.00 0.00 90 1011.2
20260504230015 12 281 8.0 25.7 0.00 0.00 0.00 90 1011.3
20260504230005 12 245 8.0 24.1 0.00 0.00 0.00 90 1011.8
20260504225503 12 243 9.7 25.7 0.00 0.00 0.00 89 1011.2
20260504225004 12 241 11.3 25.7 0.00 0.00 0.00 89 1011.2
20260504224510 12 228 9.7 29.0 0.00 0.00 0.00 89 1011.3
20260504224004 12 259 11.3 29.0 0.00 0.00 0.00 89 1011.2
20260504223503 12 199 8.0 22.5 0.00 0.00 0.00 89 1011.3
20260504223010 12 256 8.0 25.7 0.00 0.00 0.00 89 1011.2
20260504223002 12 253 8.0 27.4 0.00 0.00 0.00 90 1011.8
20260504222503 12 230 12.9 30.6 0.00 0.00 0.00 89 1011.4
20260504222007 12 293 12.9 32.2 0.00 0.00 0.00 89 1011.3
20260504221518 12 195 11.3 32.2 0.00 0.00 0.00 89 1011.4
20260504221002 12 297 9.7 29.0 0.00 0.00 0.00 89 1011.4
20260504220503 12 259 12.9 30.6 0.00 0.00 0.00 89 1011.5
20260504220012 12 278 9.7 32.2 0.00 0.00 0.00 89 1011.5
20260504220005 12 273 9.7 33.8 0.00 0.00 0.00 90 1011.9
20260504215504 12 238 12.9 32.2 0.00 0.00 0.00 89 1011.4
20260504215011 12 326 12.9 29.0 0.00 0.00 0.00 89 1011.4
20260504214513 12 240 8.0 29.0 0.00 0.00 0.00 89 1011.2
20260504214003 12 251 6.4 30.6 0.00 0.00 0.00 89 1011.4
20260504213504 13 217 14.5 30.6 0.00 0.00 0.00 88 1011.2
20260504213035 13 237 9.7 29.0 0.00 0.00 0.00 88 1011.5
20260504213002 13 235 9.7 30.6 0.00 0.00 0.00 88 1012.0
20260504212503 13 287 8.0 30.6 0.00 0.00 0.00 87 1011.5
20260504212004 13 240 12.9 30.6 0.00 0.00 0.00 87 1011.5
20260504211515 13 225 16.1 30.6 0.00 0.00 0.00 87 1011.6
20260504211501 13 223 16.1 32.2 0.00 0.00 0.00 87 1012.0
20260504211003 13 290 9.7 30.6 0.00 0.00 0.00 87 1011.5
20260504210503 13 295 9.7 33.8 0.00 0.00 0.00 87 1011.6
20260504210014 13 253 16.1 33.8 0.00 0.00 0.00 86 1011.4
20260504210009 13 193 16.1 32.2 0.00 0.00 0.00 86 1012.0
20260504205506 13 267 12.9 30.6 0.00 0.00 0.00 86 1011.4
20260504205006 14 235 12.9 32.2 0.00 0.00 0.00 86 1011.4
20260504204517 13 256 14.5 32.2 0.00 0.00 0.00 85 1011.3
20260504204006 14 224 11.3 38.6 0.00 0.00 0.00 84 1011.3
20260504203510 14 248 14.5 38.6 0.00 0.00 0.00 85 1011.4
20260504203015 15 222 14.5 38.6 0.00 0.00 0.00 85 1011.3
20260504202504 14 234 8.0 32.2 0.00 0.00 0.00 84 1011.3
20260504202004 15 221 9.7 29.0 0.00 0.00 0.00 84 1011.3
20260504201523 15 288 12.9 35.4 0.00 0.00 0.00 84 1011.2
20260504201003 14 240 11.3 35.4 0.00 0.00 0.00 83 1011.2
20260504200502 15 210 14.5 35.4 0.00 0.00 0.00 83 1011.4
20260504200015 15 209 9.7 33.8 0.00 0.00 0.00 83 1011.4
20260504200005 15 203 11.3 35.4 0.00 0.00 0.00 84 1011.9
20260504195505 15 219 8.0 33.8 0.00 0.00 0.00 82 1011.6
20260504195007 15 210 11.3 29.0 0.00 0.00 0.00 82 1011.5
20260504194517 15 244 9.7 29.0 0.00 0.00 0.00 82 1011.5
20260504194006 15 231 8.0 27.4 0.00 0.00 0.00 81 1011.6
20260504193508 15 276 9.7 30.6 0.00 0.00 0.00 82 1011.6
20260504193016 15 269 12.9 30.6 0.00 0.00 0.00 82 1011.6
20260504192506 15 254 14.5 30.6 0.00 0.00 0.00 83 1011.6
20260504192005 15 281 12.9 29.0 0.00 0.00 0.00 81 1011.6
20260504191518 16 260 9.7 25.7 0.00 0.00 0.00 81 1011.7
20260504191012 16 224 6.4 33.8 0.00 0.00 0.00 82 1011.7
20260504190504 15 302 6.4 33.8 0.00 0.00 0.00 83 1011.7
20260504190016 15 255 8.0 25.7 0.00 0.00 0.00 83 1011.8
20260504190002 15 242 8.0 24.1 0.00 0.00 0.00 83 1012.5
20260504185510 15 210 11.3 29.0 0.00 0.00 0.00 82 1011.8
20260504185007 15 281 9.7 29.0 0.00 0.00 0.00 83 1011.9
20260504184515 15 160 9.7 22.5 0.00 0.00 0.00 82 1011.8
20260504184007 15 265 8.0 20.9 0.00 0.00 0.00 82 1011.9
20260504183508 16 211 8.0 20.9 0.00 0.00 0.00 82 1012.0
20260504183021 15 244 8.0 25.7 0.00 0.00 0.00 82 1011.9
20260504182510 16 261 9.7 25.7 0.00 0.00 0.00 82 1012.0
20260504182006 15 236 11.3 32.2 0.00 0.00 0.00 83 1012.1
20260504181512 15 281 12.9 37.0 0.00 0.00 0.00 84 1012.1
20260504181004 15 211 14.5 37.0 0.00 0.00 0.00 81 1012.1
20260504180504 15 261 9.7 29.0 0.00 0.00 0.00 83 1012.2
20260504180020 15 276 8.0 35.4 0.00 0.00 0.00 83 1012.2
20260504180002 15 254 8.0 37.0 0.00 0.00 0.00 84 1012.7
20260504175508 16 237 12.9 35.4 0.00 0.00 0.00 83 1012.2
20260504175011 16 253 8.0 22.5 0.00 0.00 0.00 85 1012.3
20260504174519 15 268 8.0 25.7 0.00 0.00 0.00 85 1012.3
20260504174004 15 248 11.3 30.6 0.00 0.00 0.00 85 1012.3
20260504173510 15 231 9.7 30.6 0.00 0.00 0.00 86 1012.3
20260504173031 15 276 14.5 30.6 0.00 0.00 0.00 86 1012.3
20260504172507 15 268 12.9 30.6 0.00 0.00 0.00 86 1012.4
20260504172007 15 219 14.5 24.1 0.00 0.00 0.00 86 1012.4
20260504171522 15 198 11.3 27.4 0.00 0.00 0.00 85 1012.4
20260504171009 15 224 11.3 27.4 0.00 0.00 0.00 86 1012.5
20260504170504 15 237 12.9 22.5 0.00 0.00 0.00 86 1012.6
20260504151011 15 231 14.5 24.1 0.00 0.00 0.00 83 1013.3
20260504150507 15 278 9.7 27.4 0.00 0.00 0.00 83 1013.2
20260504141006 14 226 6.4 24.1 0.00 0.00 0.00 83 1013.5
20260504140507 14 272 6.4 27.4 0.00 0.00 0.00 82 1013.6
20260504130510 15 318 8.0 20.9 0.00 0.00 0.00 78 1013.6
20260504110507 7 266 3.2 6.4 0.00 0.00 0.00 98 1013.6
20260504100509 3 273 1.6 6.4 0.00 0.00 0.00 93 1013.3
20260504082004 4 345 1.6 8.0 0.00 0.00 0.00 93 1012.8
20260504081511 4 287 1.6 8.0 0.00 0.00 0.00 93 1012.8
20260504081006 4 319 1.6 4.8 0.00 0.00 0.00 93 1012.8
20260504080504 4 325 1.6 4.8 0.00 0.00 0.00 93 1012.8
20260504050504 4 306 1.6 6.4 0.00 0.00 0.00 88 1012.0
20260504050012 4 277 0.0 4.8 0.00 0.00 0.00 88 1012.0
20260504050002 4 273 0.0 4.8 0.00 0.00 0.00 89 1012.7
20260504045504 4 269 0.0 3.2 0.00 0.00 0.00 88 1012.0
20260504045009 4 269 0.0 3.2 0.00 0.00 0.00 88 1012.1
20260504044534 4 243 0.0 1.6 0.00 0.00 0.00 88 1012.1
20260504044507 4 240 0.0 1.6 0.00 0.00 0.00 88 1012.9
20260504044006 4 242 0.0 3.2 0.00 0.00 0.00 88 1012.1
20260504043503 4 242 0.0 3.2 0.00 0.00 0.00 88 1012.2
20260504043018 5 241 0.0 1.6 0.00 0.00 0.00 88 1012.2
20260504043005 5 239 0.0 1.6 0.00 0.00 0.00 88 1012.9
20260504042503 5 241 0.0 1.6 0.00 0.00 0.00 88 1012.1
20260504042009 5 241 0.0 1.6 0.00 0.00 0.00 87 1012.1
20260504041520 5 241 0.0 1.6 0.00 0.00 0.00 87 1012.1
20260504041501 5 239 0.0 1.6 0.00 0.00 0.00 88 1012.8
20260504041006 5 241 0.0 1.6 0.00 0.00 0.00 87 1012.0
20260504040502 5 241 0.0 1.6 0.00 0.00 0.00 87 1011.9
20260504040008 5 241 0.0 0.0 0.00 0.00 0.00 87 1011.8
20260504035506 5 241 0.0 0.0 0.00 0.00 0.00 87 1011.8
20260504035004 5 241 0.0 0.0 0.00 0.00 0.00 87 1011.8
20260504034510 5 241 0.0 1.6 0.00 0.00 0.00 87 1011.8
20260504034501 5 239 0.0 1.6 0.00 0.00 0.00 87 1012.4
20260504034004 5 241 0.0 3.2 0.00 0.00 0.00 87 1011.9
20260504033508 5 240 0.0 3.2 0.00 0.00 0.00 86 1011.8
20260504033012 5 240 0.0 4.8 0.00 0.00 0.00 86 1011.9
20260504033001 5 238 0.0 4.8 0.00 0.00 0.00 86 1012.5
20260504032506 5 240 0.0 4.8 0.00 0.00 0.00 86 1011.8
20260504032006 5 244 0.0 4.8 0.00 0.00 0.00 85 1011.8
20260504031522 5 244 0.0 4.8 0.00 0.00 0.00 85 1011.8
20260504031503 5 242 0.0 4.8 0.00 0.00 0.00 86 1012.5
20260504031007 5 247 0.0 0.0 0.00 0.00 0.00 85 1011.9
20260504030508 5 247 0.0 0.0 0.00 0.00 0.00 85 1011.9
20260504030026 5 247 0.0 0.0 0.00 0.00 0.00 85 1011.8
20260504030004 5 244 0.0 0.0 0.00 0.00 0.00 86 1012.4
20260504025509 5 247 0.0 1.6 0.00 0.00 0.00 85 1011.8
20260504025006 5 246 0.0 3.2 0.00 0.00 0.00 84 1011.8
20260504024510 5 246 0.0 3.2 0.00 0.00 0.00 84 1011.8
20260504024502 5 244 0.0 3.2 0.00 0.00 0.00 85 1012.5
20260504023507 5 246 0.0 1.6 0.00 0.00 0.00 84 1011.8
20260504023013 5 246 0.0 4.8 0.00 0.00 0.00 83 1011.8
20260504023002 5 244 0.0 1.6 0.00 0.00 0.00 84 1012.4
20260504022508 5 246 0.0 4.8 0.00 0.00 0.00 83 1011.8
20260504022004 5 245 0.0 4.8 0.00 0.00 0.00 83 1011.8
20260504021525 5 246 0.0 4.8 0.00 0.00 0.00 82 1011.8
20260504021504 5 244 0.0 4.8 0.00 0.00 0.00 83 1012.4
20260504021006 5 248 0.0 6.4 0.00 0.00 0.00 82 1011.9
20260504020506 6 233 0.0 11.3 0.00 0.00 0.00 82 1011.8
20260504020020 6 240 1.6 11.3 0.00 0.00 0.00 81 1011.9
20260504020003 6 238 1.6 11.3 0.00 0.00 0.00 82 1012.5
20260504015508 6 244 0.0 8.0 0.00 0.00 0.00 81 1011.8